Powrót do katalogu

CZ-6A DEB

AktywnyPO
NORAD 61824·DEBRIS·🇨🇳 China

Wystrzelony Aug 6, 2024 z Taiyuan Satellite Launch Center

Loading…

Następne Przeloty (najbliższe 24 godziny)

TLE

ŚwieżeSource: Space-Track

Epoka: Sep 13, 2026, 10:39 UTC

1 61824U 24140ACQ 26256.44422503  .00002312  00000-0  75792-3 0  9998
2 61824  88.9100 254.5243 0010766  64.2176 296.0134 14.38108853105024

Śledź CZ-6A DEB w czasie rzeczywistym z AllMySat

Download on the App Store